カタログに戻る

ARIANE 44L+ DEB

運用中GTO
NORAD 22850·DEBRIS·🇫🇷 France

打ち上げ Apr 15, 1992 から Guiana Space Centre

Loading…

TLE

最新Source: Space-Track

元期: Sep 14, 2026, 21:05 UTC

1 22850U 92021E   26257.87910056  .00000102  00000-0  13649-1 0  9996
2 22850   3.8518 265.0184 7042955 322.7984 170.1005  2.24879891274408

AllMySatでARIANE 44L+ DEBをリアルタイム追跡

Download on the App Store